DELTA 1 R/B, 3315

Orbit data source: Space-Track

DELTA 1 R/B, 3315 is space debris originally from a launch on Thu, 04 Jul 1968 UTC launched from the Air Force Western Test Range (AFWTR). Debris objects in space refer to the collection of defunct objects orbiting the Earth. Examples of debris include non-operational satellites, rocket bodies, and fragments generated from explosions, collisions, or faulty payload assembly.

Loading next visibility...
Identifier
3315, 1968-055B
Orbit
Active
Country
Flag of USUS
Related business
Manufacturer
Thiokol/TE
Mission
Spacecraft
Bus & Motor
STAR 37, Unknown motor
Mass
65 kg wet, 65 kg dry
Launch date (UTC)
1968-07-04 (57 years ago)
Launch vehicle
Unknown
Launch site
Air Force Western Test Range (AFWTR)
Object type
Payload
Rocket body
Debris
Shape & HBR
Unknown
Radar Cross Section
Medium (>0.1 m² and <1 m²)

Expand to show TLE details & history
Last TLE update: 2 days ago

TLE from 2 days ago
0 DELTA 1 R/B
1 03315U 68055B   25307.69646848  .00000054  00000-0  21803-3 0  9990
2 03315 120.6759 267.6190 2637356 155.4724   9.6779  9.25707659920677
Epoch: 2025-11-03T16:42Z
TLE epoch observation values (Epoch: 2025-11-03T16:42:54.876Z)
Latitude
6.3137°
Longitude
157.43832°
Altitude
742.42 km
Speed
8.39 km/s
True Right ascension
06h 05m 26s
True Declination
6° 16' 34"
Sunlit
Object was in full shadow at epoch
Visualization orbit readout
Latitude
Unknown
Longitude
Unknown
Altitude
Unknown
Speed
Unknown
Apparent Right ascension
Unknown
Apparent Declination
Unknown
Sunlit
N/A
Visualization observer readout
Local Sidereal Time
03:43:44
Azimuth
Unknown
Elevation
Unknown
Doppler factor
Unknown
Orbital elements
Apogee altitude
5,729.247 km
Perigee altitude
675.74 km
Semi-major axis
9,580.631 km
Eccentricity
0.26374
Inclination
120.6759°
RAAN
267.619°
Arg. of periapsis
155.4724°
True anomaly
17.11437°
Mean anomaly
9.6779°
Eccentric anomaly
13.10379°
Mean motion
2.31447 °/min
Orbital period
155.54 mins
BSTAR
0.00021803
Loading maneuver chart data...
Computing Atmospheric mass density...
Loading historical data...
Loading historical data...
Loading historical data...
Loading historical data...
Loading historical data...
Loading historical data...
Loading historical data...

Documentation

Showing up to 5 results
|